Theta_e
300 294 292 295 298 298 297 295 292 295 301 299 298 298 300 302 300 300 302 301 301 302 307 309 310 313 321 329 330 333 337 338 337 335 333 333 333 336 336 336 336 335 335 334
296 292 298 299 299 298 297 295 294 297 301 299 297 297 301 300 301 301 301 301 301 301 304 307 309 307 308 312 320 327 334 338 338 337 337 337 336 337 340 339 337 338 338 337
293 297 301 299 297 295 296 293 294 295 299 300 295 295 298 299 300 302 302 303 303 302 302 306 306 308 308 311 312 321 332 337 339 339 339 336 336 336 336 336 338 338 338 339
295 300 298 297 295 296 292 298 298 296 294 289 296 288 296 297 299 300 301 303 302 304 304 307 311 313 315 317 317 318 330 335 338 340 339 338 336 335 338 339 339 337 338 338
296 298 297 296 297 298 295 298 296 296 293 290 292 287 294 296 295 298 301 304 306 303 305 307 311 312 314 315 321 326 328 332 337 339 340 338 336 336 335 335 336 336 336 337
298 301 298 297 300 300 301 298 297 295 292 286 290 288 290 295 295 299 302 304 304 307 310 309 311 315 316 317 315 323 329 333 337 339 339 338 335 333 332 332 333 332 336 338
295 296 299 301 297 299 297 292 287 285 285 285 292 289 292 296 300 301 302 304 307 308 311 315 310 315 318 320 320 316 327 330 336 338 337 337 335 333 333 332 334 336 336 334
287 286 295 296 295 293 293 291 286 281 281 285 293 287 292 299 302 304 307 307 308 309 308 315 318 319 320 322 322 325 327 331 333 334 334 334 335 334 333 333 331 331 330 329
287 285 292 294 298 296 292 290 295 289 291 286 288 292 298 301 299 303 304 305 305 307 307 312 317 318 317 318 320 322 325 326 327 328 329 328 329 329 327 326 325 324 325 325
290 283 290 297 294 295 294 297 289 291 283 282 286 287 289 295 297 300 301 302 304 307 307 311 317 318 319 321 323 324 325 325 326 326 326 325 324 324 324 321 319 318 319 319
290 287 286 290 288 287 287 286 292 293 291 283 281 285 296 296 297 296 300 302 304 306 307 314 316 318 320 319 318 318 319 319 319 319 319 318 317 316 315 313 313 313 312 308
287 286 280 282 289 291 288 287 290 287 285 288 288 285 297 297 295 298 299 302 304 307 312 314 315 318 318 316 316 315 315 315 314 315 314 313 312 311 310 310 310 309 305 304
286 281 277 278 284 287 286 288 289 288 287 282 279 283 297 295 295 299 298 301 304 306 314 313 313 313 315 315 315 313 312 311 311 310 309 308 308 308 307 306 305 305 301 299
292 284 280 276 279 284 282 285 287 286 280 280 281 283 287 290 293 296 297 301 301 303 308 310 312 314 314 314 313 311 309 310 309 308 307 305 305 305 303 303 302 301 299 297
286 280 283 283 284 284 283 284 284 282 283 279 282 282 286 289 292 294 296 297 296 296 299 304 303 312 312 313 311 310 309 308 308 306 305 304 303 301 300 300 299 299 298 297
285 279 281 279 283 283 280 283 283 284 284 284 284 283 286 293 293 292 293 295 294 293 296 301 303 312 310 310 308 306 305 305 305 304 302 302 301 300 298 298 297 297 297 296
283 281 277 275 280 279 276 280 282 283 285 283 278 283 287 291 291 291 293 294 293 293 296 299 301 311 307 306 306 303 302 303 302 301 301 300 299 297 296 296 295 295 294 294
282 281 280 275 278 265 280 285 285 283 284 285 285 286 289 290 292 291 292 293 293 295 297 300 302 306 305 305 303 301 301 300 299 299 298 298 297 296 295 294 294 293 293 292
286 282 276 272 273 277 280 282 281 281 281 286 284 287 288 289 290 288 293 295 295 297 301 305 305 306 304 302 302 300 299 299 298 296 296 295 294 293 292 291 291 291 290 289
285 284 279 270 270 267 279 285 288 286 277 286 288 287 286 288 281 284 293 295 296 298 301 304 304 304 302 301 301 298 296 296 294 294 293 293 292 291 290 290 288 288 288 287
278 279 276 276 274 277 284 287 288 276 278 287 287 286 286 285 288 291 294 294 297 298 299 300 300 300 300 299 298 296 294 293 294 293 292 291 290 290 289 288 288 287 287 286
278 276 274 277 274 271 287 285 281 285 287 286 287 288 288 289 290 293 294 294 297 296 295 296 296 296 298 298 296 293 290 292 292 291 289 288 288 288 288 287 287 286 284 282
276 280 277 279 278 285 287 286 288 289 288 288 288 290 290 289 290 292 294 295 296 294 294 293 292 292 294 294 292 289 289 290 289 287 286 286 287 287 286 284 283 282 281 281
281 284 279 280 283 285 287 289 290 290 289 291 290 290 290 289 291 293 294 294 294 293 292 290 289 288 289 290 289 287 287 287 286 285 285 286 285 283 283 282 282 281 280 279
281 281 280 280 283 285 286 287 288 289 291 290 290 290 289 291 292 293 294 294 296 290 288 288 286 285 285 286 286 286 286 287 285 284 283 282 281 281 280 280 280 280 281 279
283 281 279 277 284 284 284 288 289 288 288 289 288 289 291 294 293 293 290 293 291 288 287 286 285 285 285 285 285 285 286 285 283 280 280 279 279 278 278 277 276 280 280 280
Wind_Speed
1 3 7 14 14 6 5 8 8 9 15 12 12 19 17 16 9 12 15 11 11 12 15 12 11 18 19 19 18 19 17 19 12 12 12 11 14 9 9 9 9 9 10 11
4 6 11 7 6 7 9 12 14 15 12 6 14 24 16 12 13 11 11 12 12 8 10 13 16 8 13 20 20 20 21 19 17 13 13 10 9 8 6 6 7 9 11 11
10 7 3 3 7 6 13 6 12 18 16 14 9 24 17 7 6 11 8 11 8 10 12 16 14 13 9 14 17 19 20 21 19 19 10 3 4 3 4 5 7 10 10 10
7 4 5 7 5 5 17 4 13 15 12 14 4 20 28 7 12 8 11 12 9 10 9 8 11 10 8 9 7 10 14 17 15 15 13 18 12 9 9 8 5 4 6 8
8 6 11 14 11 4 13 6 7 13 16 8 23 4 24 6 7 8 11 13 15 8 9 11 10 8 11 6 7 7 8 9 12 15 14 11 8 4 4 3 6 5 5 6
9 3 4 7 10 7 7 13 11 8 7 11 19 6 11 19 7 6 8 10 11 13 16 17 11 8 8 9 4 6 9 11 12 13 12 14 11 8 6 5 3 1 2 1
8 2 2 7 7 5 3 5 8 6 8 13 10 10 16 10 9 6 9 12 12 16 17 19 12 11 9 9 7 5 5 6 10 13 11 11 9 8 8 6 4 6 4 3
5 7 4 6 3 4 6 3 3 8 5 10 12 12 14 4 10 7 10 13 20 21 17 13 11 9 11 10 3 6 6 6 7 8 8 8 8 5 5 8 7 6 6 4
5 7 5 9 1 2 5 4 7 4 2 3 6 15 25 19 5 8 15 20 23 22 19 16 6 11 14 14 17 7 10 10 8 9 9 10 11 11 10 10 9 7 6 7
5 12 4 2 5 5 1 7 6 5 4 6 4 8 10 12 16 18 20 20 24 24 25 22 7 9 9 9 10 13 12 14 11 13 11 11 12 12 12 11 11 11 10 11
3 4 6 7 2 2 7 7 3 4 4 5 2 7 1 15 19 21 20 21 23 22 20 13 5 4 16 9 10 11 10 13 13 11 13 14 12 11 12 12 11 11 12 10
3 4 9 7 14 15 5 2 2 2 3 5 4 8 10 17 21 20 21 22 25 21 11 10 9 3 4 15 11 12 5 11 13 11 10 12 11 12 12 12 11 11 12 12
5 4 8 9 4 8 4 5 4 4 4 6 2 8 15 20 17 16 20 20 21 23 11 7 7 8 6 5 8 11 14 10 10 14 10 11 11 12 12 12 11 13 13 12
1 4 10 14 9 4 11 11 7 5 4 9 13 24 17 17 15 15 17 18 21 23 19 15 9 3 3 5 9 10 9 13 16 12 9 12 11 12 11 12 12 12 11 11
2 6 6 14 7 9 13 14 10 11 9 10 19 22 16 10 12 14 12 15 19 22 24 23 25 7 2 4 5 7 8 10 12 14 8 14 12 9 13 12 10 10 10 9
1 6 4 19 12 13 15 13 14 13 15 17 20 23 4 6 12 15 14 15 17 19 23 21 28 10 9 8 8 7 10 11 12 11 13 12 13 10 12 11 8 9 9 8
8 6 2 23 6 12 19 16 16 13 12 9 7 7 2 4 8 13 9 15 18 20 18 21 22 6 10 12 13 11 12 13 13 15 13 11 9 15 8 7 9 8 7 7
13 12 7 15 6 9 12 2 4 4 6 8 11 10 2 3 5 9 6 11 17 21 22 22 15 4 9 11 12 13 13 14 17 14 14 12 12 9 7 8 7 8 8 10
18 11 7 10 10 19 28 4 5 8 15 13 9 7 4 5 5 4 6 7 13 16 22 19 13 10 8 11 11 12 12 12 14 15 13 14 11 9 9 7 8 8 9 9
7 10 8 3 4 8 1 6 4 3 19 10 7 6 6 5 7 4 9 11 14 14 16 14 4 9 9 9 10 14 13 12 13 15 15 13 11 10 8 7 10 10 8 9
8 5 11 9 10 12 5 2 4 9 7 4 1 4 5 3 6 6 7 9 8 10 10 13 15 5 8 9 12 14 14 13 14 15 15 13 11 10 8 8 8 8 6 7
9 6 6 8 13 21 4 1 9 6 5 3 6 6 6 7 6 7 8 8 7 5 7 9 11 9 4 9 12 15 15 13 14 12 16 14 12 8 7 8 6 7 6 5
7 9 6 9 6 7 6 6 9 13 17 18 7 8 8 7 6 7 8 9 6 1 4 5 10 10 7 8 16 17 12 15 14 10 17 11 9 8 6 5 7 7 6 6
12 13 14 16 21 25 24 21 20 19 17 17 9 9 7 7 7 7 8 11 5 5 6 7 9 12 8 9 11 17 12 12 14 12 11 8 8 8 8 8 8 7 7 8
9 4 17 18 21 21 25 21 21 21 13 16 9 9 8 8 6 5 9 13 11 11 10 8 10 10 9 7 7 11 11 12 12 12 11 9 8 8 8 9 7 7 10 11
12 26 15 20 24 21 22 20 12 11 14 18 8 8 8 7 5 4 5 5 8 11 11 11 12 15 9 8 9 8 12 12 11 11 8 8 7 6 6 6 7 18 17 20
Wind_Direction
310 119 195 225 220 218 251 264 258 270 284 304 275 277 281 290 306 294 288 277 273 267 269 274 220 223 219 230 226 213 203 206 186 189 190 195 208 202 206 202 206 195 197 197
322 230 232 249 251 225 243 259 276 276 265 229 301 291 284 269 270 245 255 281 272 277 284 281 271 211 196 210 215 216 210 200 195 193 201 203 200 202 194 196 190 198 199 201
227 234 356 243 266 277 264 241 263 264 288 272 306 287 297 269 268 284 260 251 271 262 286 289 282 251 193 204 202 205 205 200 198 196 182 130 107 101 152 180 193 200 197 199
248 230 227 277 267 217 273 250 268 277 290 276 177 286 288 285 262 263 279 291 266 297 303 293 302 280 228 227 208 208 203 198 197 186 181 186 191 188 204 199 200 168 182 190
243 267 283 280 263 191 274 264 270 295 288 294 280 193 292 305 301 287 285 277 293 296 294 288 272 271 288 219 202 183 167 172 175 183 184 184 187 164 125 118 154 185 191 202
254 277 202 240 263 236 281 293 284 254 257 265 272 193 249 281 245 261 264 282 348 336 328 298 251 243 253 278 194 182 174 174 166 172 174 181 170 151 129 136 167 177 255 230
333 273 17 32 332 336 350 296 288 269 264 268 279 294 253 282 298 278 315 353 342 340 340 321 277 227 214 234 213 174 180 162 167 169 165 169 156 146 147 148 149 138 93 61
336 316 10 355 169 245 290 246 232 310 268 292 304 262 268 276 315 29 5 343 349 348 341 332 0 7 359 314 171 123 135 131 135 138 130 116 116 105 105 99 96 87 96 85
326 268 339 329 327 360 301 193 227 236 345 271 261 275 282 275 280 16 9 1 344 338 336 337 33 46 27 8 338 56 86 84 83 89 94 95 98 98 102 91 89 85 89 79
312 298 226 327 339 300 24 296 12 1 220 224 259 276 267 358 11 9 360 351 334 332 333 331 304 92 57 44 11 353 73 82 84 86 86 86 86 85 90 89 85 79 72 73
315 226 296 359 235 71 347 335 332 209 215 284 288 265 115 24 14 358 354 354 338 325 332 329 25 9 117 76 46 34 15 73 73 76 97 93 90 91 87 84 79 81 76 72
300 283 288 277 266 267 216 358 50 285 325 293 271 257 71 18 354 10 356 354 340 339 343 355 358 28 53 111 114 92 42 71 65 53 71 82 87 83 84 82 78 81 78 65
334 311 312 312 2 8 75 3 33 19 16 263 347 273 330 350 356 11 358 354 347 336 347 353 17 351 331 98 112 118 92 47 79 80 54 60 68 70 76 80 77 69 72 68
352 233 237 258 280 342 306 304 289 246 240 276 256 293 315 333 350 3 359 9 353 348 342 340 316 208 258 294 117 112 112 121 104 75 108 87 71 76 63 64 65 70 78 81
163 259 259 275 278 285 277 266 253 229 235 243 281 274 313 338 358 358 349 2 353 347 333 331 332 245 55 44 22 71 86 81 97 110 120 83 76 65 81 66 64 74 79 83
259 271 282 284 281 274 279 264 253 232 240 255 265 268 7 18 360 347 347 354 343 337 327 324 327 168 153 138 128 98 80 85 87 87 63 57 88 85 61 72 74 72 75 79
249 264 289 276 300 323 286 260 245 236 235 213 248 274 357 56 354 324 337 346 330 325 318 315 325 217 149 137 134 122 109 98 83 79 71 76 55 65 70 84 72 75 68 62
240 225 230 269 305 270 250 59 334 221 280 263 272 301 136 216 249 290 350 334 320 320 314 300 295 237 144 137 129 122 120 117 110 95 94 77 79 68 48 44 55 53 54 55
218 216 233 242 234 277 286 266 242 243 265 268 276 264 267 272 251 262 306 325 311 311 308 285 261 158 160 142 133 117 104 96 91 101 88 84 78 71 56 58 56 53 53 50
192 220 225 113 226 238 171 110 56 85 278 183 180 224 261 338 339 283 299 323 318 327 351 354 113 129 133 126 115 103 99 99 94 88 89 80 77 76 72 60 63 48 45 51
271 246 223 236 255 260 231 193 225 205 264 128 166 230 229 242 212 246 287 307 304 325 2 43 5 9 111 113 113 106 102 93 92 94 89 84 82 78 75 61 61 63 55 51
262 240 228 236 246 260 171 90 203 230 317 247 220 256 251 236 264 251 269 288 303 330 356 49 67 354 18 109 106 99 90 87 90 96 92 80 69 71 58 57 52 54 39 31
244 212 230 212 234 275 236 207 257 275 278 277 225 229 241 248 260 254 268 283 282 96 76 53 81 62 4 77 102 91 84 89 81 68 82 88 86 67 46 46 43 39 25 31
247 237 251 261 252 250 262 275 271 272 264 272 227 241 229 242 244 252 274 286 255 137 116 102 84 85 70 58 84 102 103 92 97 94 82 64 65 69 57 54 58 54 50 49
243 274 250 259 266 273 262 262 271 273 263 272 257 237 241 232 239 253 280 294 283 148 129 114 99 80 67 61 57 79 96 87 90 82 78 73 67 59 61 63 59 59 63 55
225 248 251 254 255 252 263 267 249 256 260 272 244 252 257 186 222 270 313 339 125 134 129 111 98 97 79 77 71 73 91 90 92 89 81 72 70 63 56 52 51 46 53 48